CW5283 Weather Reports


Display with metric or nautical units.
time (UTC)temp
F
wind
direction
speed
MPH
gust
MPH
rain 1hr
in
rain 24hr
in
rain mn
in
humidity
%
barometer
mb
20260507064021 58 32 0.0 0.0 0.00 0.00 0.00 74 1013.4
20260507063730 58 32 0.0 0.0 0.00 0.00 0.00 74 1013.4
20260507063531 58 32 0.0 0.0 0.00 0.00 0.00 74 1013.4
20260507063033 58 32 0.0 0.0 0.00 0.00 0.00 74 1013.4
20260507062720 58 32 0.0 0.0 0.00 0.00 0.00 74 1013.3
20260507062538 58 32 0.0 0.0 0.00 0.00 0.00 74 1013.3
20260507062020 58 32 0.0 0.0 0.00 0.00 0.00 74 1013.3
20260507061730 58 32 0.0 0.0 0.00 0.00 0.00 74 1013.3
20260507061528 58 32 0.0 0.0 0.00 0.00 0.00 74 1013.3
20260507061031 58 32 0.0 0.0 0.00 0.00 0.00 74 1013.6
20260507060723 58 32 0.0 0.0 0.00 0.00 0.00 74 1013.6
20260507060520 58 32 0.0 0.0 0.00 0.00 0.00 74 1013.6
20260507060029 58 31 0.0 0.0 0.00 0.00 0.00 74 1013.6
20260507055732 58 31 0.0 0.0 0.00 0.00 0.00 74 1013.6
20260507055537 58 31 0.0 0.0 0.00 0.00 0.00 74 1013.6
20260507055038 58 31 0.0 0.0 0.00 0.00 0.00 74 1013.6
20260507054722 58 31 0.0 0.0 0.00 0.00 0.00 74 1013.6
20260507054527 58 17 0.0 0.0 0.00 0.00 0.00 74 1013.6
20260507054050 58 14 0.0 0.0 0.00 0.00 0.00 74 1013.6
20260507053734 58 13 0.0 0.0 0.00 0.00 0.00 74 1013.6
20260507053536 58 339 0.0 0.0 0.00 0.00 0.00 74 1013.6
20260507053038 58 333 0.0 0.0 0.00 0.00 0.00 74 1013.6
20260507052721 58 333 0.0 0.0 0.00 0.00 0.00 74 1013.4
20260507052524 58 333 0.0 0.0 0.00 0.00 0.00 74 1013.4
20260507052027 58 332 0.0 0.0 0.00 0.00 0.00 74 1013.4
20260507051752 58 282 0.0 0.0 0.00 0.00 0.00 74 1013.4
20260507051533 58 282 0.0 0.0 0.00 0.00 0.00 74 1013.4
20260507051055 58 282 0.0 0.0 0.00 0.00 0.00 73 1013.5
20260507050759 58 282 0.0 0.0 0.00 0.00 0.00 73 1013.5
20260507050520 58 282 0.0 0.0 0.00 0.00 0.00 73 1013.5
20260507050023 58 282 0.0 0.0 0.00 0.00 0.00 73 1013.5
20260507045727 58 282 0.0 0.0 0.00 0.00 0.00 73 1013.5
20260507045532 58 282 0.0 0.0 0.00 0.00 0.00 73 1013.5
20260507045035 59 282 0.0 0.0 0.00 0.00 0.00 73 1013.5
20260507044724 59 282 0.0 0.0 0.00 0.00 0.00 72 1013.5
20260507044542 59 281 0.0 0.0 0.00 0.00 0.00 72 1013.5
20260507044024 59 278 0.0 0.0 0.00 0.00 0.00 72 1013.5
20260507043736 59 278 0.0 0.0 0.00 0.00 0.00 72 1013.5
20260507043516 59 278 0.0 0.0 0.00 0.00 0.00 72 1013.5
20260507043043 59 278 0.0 0.0 0.00 0.00 0.00 72 1013.5
20260507042749 59 278 0.0 0.0 0.00 0.00 0.00 72 1013.5
20260507042528 59 278 0.0 0.0 0.00 0.00 0.00 72 1013.5
20260507042030 59 278 0.0 0.0 0.00 0.00 0.00 72 1013.5
20260507041722 59 278 0.0 0.0 0.00 0.00 0.00 72 1013.5
20260507041519 59 278 0.0 0.0 0.00 0.00 0.00 72 1013.5
20260507041024 59 278 0.0 0.0 0.00 0.00 0.00 71 1013.5
20260507040732 59 278 0.0 0.0 0.00 0.00 0.00 71 1013.5
20260507040528 59 278 0.0 0.0 0.00 0.00 0.00 71 1013.5
20260507040034 59 278 0.0 0.0 0.00 0.00 0.00 71 1013.5
20260507035724 60 278 0.0 0.0 0.00 0.00 0.00 71 1013.4
20260507035524 60 278 0.0 0.0 0.00 0.00 0.00 71 1013.4
20260507035027 60 278 0.0 0.0 0.00 0.00 0.00 71 1013.4
20260507034735 60 278 0.0 0.0 0.00 0.00 0.00 71 1013.4
20260507034531 60 278 0.0 0.0 0.00 0.00 0.00 71 1013.4
20260507034016 60 278 0.0 0.0 0.00 0.00 0.00 71 1013.2
20260507033729 60 278 0.0 0.0 0.00 0.00 0.00 71 1013.2
20260507033527 60 278 0.0 0.0 0.00 0.00 0.00 71 1013.2
20260507033034 61 278 0.0 0.0 0.00 0.00 0.00 71 1013.2
20260507032717 61 277 0.0 0.0 0.00 0.00 0.00 70 1013.2
20260507032521 61 277 0.0 0.0 0.00 0.00 0.00 70 1013.2
20260507032023 61 277 0.0 0.0 0.00 0.00 0.00 69 1013.2
20260507031730 61 277 0.0 0.0 0.00 0.00 0.00 69 1013.2
20260507031556 61 277 0.0 0.0 0.00 0.00 0.00 68 1013.2
20260507031035 62 277 0.0 0.0 0.00 0.00 0.00 68 1013.1
20260507030720 62 277 0.0 0.0 0.00 0.00 0.00 67 1013.1
20260507030520 62 277 0.0 0.0 0.00 0.00 0.00 67 1013.1
20260507030021 62 269 0.0 0.0 0.00 0.00 0.00 66 1013.1
20260507025724 62 266 0.0 0.0 0.00 0.00 0.00 66 1012.8
20260507025524 62 266 0.0 0.0 0.00 0.00 0.00 66 1012.8
20260507025026 62 266 0.0 0.0 0.00 0.00 0.00 65 1012.8
20260507024750 62 266 0.0 0.0 0.00 0.00 0.00 65 1012.8
20260507024534 62 266 0.0 0.0 0.00 0.00 0.00 65 1012.8
20260507024036 63 266 0.0 0.0 0.00 0.00 0.00 64 1012.7
20260507023724 63 266 0.0 0.0 0.00 0.00 0.00 64 1012.7
20260507023542 63 266 0.0 0.0 0.00 0.00 0.00 63 1012.7
20260507023026 63 288 0.0 0.0 0.00 0.00 0.00 62 1012.7
20260507022732 64 292 0.0 0.0 0.00 0.00 0.00 62 1012.6
20260507022529 64 289 0.0 0.0 0.00 0.00 0.00 62 1012.6
20260507022029 64 289 0.0 0.0 0.00 0.00 0.00 62 1012.6
20260507021733 64 294 0.0 0.0 0.00 0.00 0.00 62 1012.6
20260507021537 64 296 0.0 0.0 0.00 0.00 0.00 62 1012.6
20260507021038 65 252 0.0 0.0 0.00 0.00 0.00 61 1012.6
20260507020726 65 250 0.0 0.0 0.00 0.00 0.00 61 1012.6
20260507020524 65 288 0.0 0.0 0.00 0.00 0.00 60 1012.6
20260507020026 65 306 0.0 0.0 0.00 0.00 0.00 60 1012.6
20260507015731 65 302 0.0 0.0 0.00 0.00 0.00 60 1012.6
20260507015547 66 285 0.0 0.0 0.00 0.00 0.00 60 1012.6
20260507015028 66 261 0.0 0.0 0.00 0.00 0.00 59 1012.6
20260507014738 66 265 0.0 0.0 0.00 0.00 0.00 59 1012.6
20260507014535 66 242 0.0 0.0 0.00 0.00 0.00 59 1012.6
20260507014057 66 250 0.0 0.0 0.00 0.00 0.00 58 1012.4
20260507013745 66 260 0.0 0.0 0.00 0.00 0.00 58 1012.4
20260507013542 66 294 0.0 0.0 0.00 0.00 0.00 58 1012.4
20260507013025 66 290 0.0 0.0 0.00 0.00 0.00 57 1012.4
20260507012753 66 290 0.0 0.0 0.00 0.00 0.00 57 1012.3
20260507012531 67 298 0.0 0.0 0.00 0.00 0.00 57 1012.3
20260507012032 67 248 0.0 0.0 0.00 0.00 0.00 56 1012.3
20260507011739 67 239 0.0 0.0 0.00 0.00 0.00 56 1012.3
20260507011557 67 243 0.0 0.0 0.00 0.00 0.00 56 1012.3
20260507010728 67 241 0.0 0.0 0.00 0.00 0.00 56 1012.2
20260507010528 67 261 0.0 0.0 0.00 0.00 0.00 56 1012.2
20260507010029 67 290 0.0 0.0 0.00 0.00 0.00 56 1012.2
20260507005736 68 298 0.0 0.0 0.00 0.00 0.00 56 1012.2
20260507005533 68 269 0.0 0.0 0.00 0.00 0.00 55 1012.2
20260507005034 68 298 0.0 0.0 0.00 0.00 0.00 55 1012.2
20260507004723 68 267 0.0 0.0 0.00 0.00 0.00 55 1012.2
20260507004519 68 250 0.0 0.0 0.00 0.00 0.00 55 1012.2
20260507004021 69 262 0.0 0.0 0.00 0.00 0.00 54 1012.0
20260507003729 69 325 0.0 0.0 0.00 0.00 0.00 53 1012.0
20260507003549 69 250 0.0 0.0 0.00 0.00 0.00 53 1012.0
20260507003029 70 269 0.0 0.0 0.00 0.00 0.00 52 1012.0
20260507002735 70 283 0.0 0.0 0.00 0.00 0.00 52 1012.0
20260507002533 70 247 0.0 0.0 0.00 0.00 0.00 52 1012.0
20260507002055 70 271 0.0 0.0 0.00 0.00 0.00 48 1012.0
20260507001724 70 295 0.0 0.0 0.00 0.00 0.00 47 1012.0
20260507001522 70 291 0.0 0.0 0.00 0.00 0.00 47 1012.0
20260507001022 71 298 0.0 0.0 0.00 0.00 0.00 46 1011.9
20260507000751 71 248 0.0 0.0 0.00 0.00 0.00 46 1011.9
20260507000530 71 236 0.0 0.0 0.00 0.00 0.00 45 1011.9
20260507000031 72 255 0.0 0.0 0.00 0.00 0.00 44 1011.9
20260506235719 72 261 0.0 0.0 0.00 0.00 0.00 43 1011.9
20260506235538 72 264 0.0 0.0 0.00 0.00 0.00 42 1011.9
20260506235019 72 268 0.0 0.0 0.00 0.00 0.00 43 1011.9
20260506234727 72 297 0.0 0.0 0.00 0.00 0.00 41 1011.9
20260506234525 72 276 0.0 0.0 0.00 0.00 0.00 42 1011.9
20260506234027 72 286 0.0 0.0 0.00 0.00 0.00 42 1011.9
20260506233736 73 261 0.0 0.0 0.00 0.00 0.00 41 1011.9
20260506233533 73 246 0.0 0.0 0.00 0.00 0.00 41 1011.9
20260506233055 74 295 0.0 0.0 0.00 0.00 0.00 39 1011.9
20260506232721 73 319 0.0 0.0 0.00 0.00 0.00 40 1011.8
20260506232518 73 229 0.0 0.0 0.00 0.00 0.00 40 1011.8
20260506232024 74 262 0.0 0.0 0.00 0.00 0.00 40 1011.8
20260506231733 74 252 0.0 0.0 0.00 0.00 0.00 40 1011.8
20260506231531 74 261 0.0 0.0 0.00 0.00 0.00 40 1011.8
20260506231034 74 249 0.0 0.0 0.00 0.00 0.00 40 1012.0
20260506230724 74 296 0.0 0.0 0.00 0.00 0.00 39 1012.0
20260506230526 74 315 0.0 0.0 0.00 0.00 0.00 40 1012.0
20260506230029 74 279 0.0 0.0 0.00 0.00 0.00 41 1012.0
20260506225734 74 265 0.0 0.0 0.00 0.00 0.00 40 1012.2
20260506225555 74 267 0.0 0.0 0.00 0.00 0.00 40 1012.2
20260506225056 74 229 0.0 0.0 0.00 0.00 0.00 41 1012.2
20260506224721 74 231 0.0 0.0 0.00 0.00 0.00 42 1012.2
20260506224522 74 240 0.0 0.0 0.00 0.00 0.00 41 1012.2
20260506224024 74 237 0.0 0.0 0.00 0.00 0.00 41 1012.4
20260506223727 74 254 0.0 0.0 0.00 0.00 0.00 42 1012.4
20260506223529 74 255 0.0 0.0 0.00 0.00 0.00 42 1012.4
20260506223031 73 297 0.0 0.0 0.00 0.00 0.00 42 1012.4
20260506222735 73 284 0.0 0.0 0.00 0.00 0.00 43 1012.4
20260506222537 73 296 0.0 0.0 0.00 0.00 0.00 42 1012.5
20260506222020 73 287 0.0 0.0 0.00 0.00 0.00 43 1012.5
20260506221726 73 254 0.0 0.0 0.00 0.00 0.00 44 1012.5
20260506221528 73 254 0.0 0.0 0.00 0.00 0.00 44 1012.5
20260506221029 73 275 0.0 0.0 0.00 0.00 0.00 44 1012.6
20260506220754 73 244 0.0 0.0 0.00 0.00 0.00 45 1012.6
20260506220535 72 313 0.0 0.0 0.00 0.00 0.00 46 1012.6
20260506220037 72 267 0.0 0.0 0.00 0.00 0.00 46 1012.6
20260506215740 72 258 0.0 0.0 0.00 0.00 0.00 46 1012.6
20260506215519 72 245 0.0 0.0 0.00 0.00 0.00 47 1012.7
20260506215022 72 281 0.0 0.0 0.00 0.00 0.00 47 1012.7
20260506214727 72 303 0.0 0.0 0.00 0.00 0.00 46 1012.7
20260506214529 72 276 0.0 0.0 0.00 0.00 0.00 47 1012.7
20260506214034 73 275 0.0 0.0 0.00 0.00 0.00 47 1012.9
20260506213724 73 267 0.0 0.0 0.00 0.00 0.00 47 1012.9
20260506213542 72 263 0.0 0.0 0.00 0.00 0.00 48 1012.9
20260506213023 72 262 0.0 0.0 0.00 0.00 0.00 48 1012.9
20260506212726 72 289 0.0 0.0 0.00 0.00 0.00 49 1013.0
20260506212528 72 284 0.0 0.0 0.00 0.00 0.00 49 1013.0
20260506212030 72 254 0.0 0.0 0.00 0.00 0.00 48 1013.0
20260506211756 72 262 0.0 0.0 0.00 0.00 0.00 47 1013.0
20260506211537 73 234 0.0 0.0 0.00 0.00 0.00 47 1013.0
20260506211020 73 259 0.0 0.0 0.00 0.00 0.00 47 1013.0
20260506210729 73 298 0.0 0.0 0.00 0.00 0.00 47 1013.0
20260506210529 73 271 0.0 0.0 0.00 0.00 0.00 48 1013.0
20260506210034 73 303 0.0 0.0 0.00 0.00 0.00 47 1013.0
20260506205724 73 289 0.0 0.0 0.00 0.00 0.00 47 1013.0
20260506205542 73 291 0.0 0.0 0.00 0.00 0.00 47 1013.0
20260506205023 73 272 0.0 0.0 0.00 0.00 0.00 48 1013.0
20260506204731 73 263 0.0 0.0 0.00 0.00 0.00 48 1013.0
20260506204549 72 291 0.0 0.0 0.00 0.00 0.00 48 1013.0
20260506204050 72 264 0.0 0.0 0.00 0.00 0.00 47 1013.2
20260506203720 72 300 0.0 0.0 0.00 0.00 0.00 47 1013.2
20260506203521 72 312 0.0 0.0 0.00 0.00 0.00 48 1013.2
20260506203022 72 260 0.0 0.0 0.00 0.00 0.00 49 1013.2
20260506202749 72 236 0.0 0.0 0.00 0.00 0.00 49 1013.4
20260506202530 72 238 0.0 0.0 0.00 0.00 0.00 49 1013.4
20260506202035 72 240 0.0 0.0 0.00 0.00 0.00 48 1013.4
20260506201724 72 240 0.0 0.0 0.00 0.00 0.00 49 1013.4
20260506201522 72 259 0.0 0.0 0.00 0.00 0.00 48 1013.4
20260506201043 73 248 0.0 0.0 0.00 0.00 0.00 48 1013.5
20260506200730 73 240 0.0 0.0 0.00 0.00 0.00 49 1013.5
20260506200528 73 261 0.0 0.0 0.00 0.00 0.00 48 1013.5
20260506200030 72 290 0.0 0.0 0.00 0.00 0.00 47 1013.5
20260506195737 72 301 0.0 0.0 0.00 0.00 0.00 48 1013.5
20260506195533 72 226 0.0 0.0 0.00 0.00 0.00 49 1013.7
20260506195054 71 216 0.0 0.0 0.00 0.00 0.00 48 1013.7
20260506194722 71 223 0.0 0.0 0.00 0.00 0.00 50 1013.7
20260506194538 71 243 0.0 0.0 0.00 0.00 0.00 50 1013.7
20260506194019 70 300 0.0 0.0 0.00 0.00 0.00 50 1013.9
20260506193731 70 282 0.0 0.0 0.00 0.00 0.00 51 1013.9
20260506193529 70 264 0.0 0.0 0.00 0.00 0.00 50 1013.9
20260506193029 71 267 0.0 0.0 0.00 0.00 0.00 51 1013.9
20260506192759 71 270 0.0 0.0 0.00 0.00 0.00 50 1013.9
20260506192536 71 270 0.0 0.0 0.00 0.00 0.00 49 1014.0
20260506192038 71 320 0.0 0.0 0.00 0.00 0.00 46 1014.0
20260506191729 71 279 0.0 0.0 0.00 0.00 0.00 46 1014.0
20260506191527 71 340 0.0 0.0 0.00 0.00 0.00 46 1014.0
20260506191048 71 291 0.0 0.0 0.00 0.00 0.00 47 1014.2
20260506190735 70 227 0.0 0.0 0.00 0.00 0.00 46 1014.2
20260506190533 70 231 0.0 0.0 0.00 0.00 0.00 47 1014.2
20260506190058 70 230 0.0 0.0 0.00 0.00 0.00 46 1014.2
20260506185724 70 260 0.0 0.0 0.00 0.00 0.00 45 1014.3
20260506185522 70 269 0.0 0.0 0.00 0.00 0.00 45 1014.3
20260506185023 69 264 0.0 0.0 0.00 0.00 0.00 45 1014.3
20260506184736 69 307 0.0 0.0 0.00 0.00 0.00 45 1014.3
20260506184532 69 306 0.0 0.0 0.00 0.00 0.00 46 1014.3
20260506184036 69 306 0.0 0.0 0.00 0.00 0.00 45 1014.6
20260506183725 69 315 0.0 0.0 0.00 0.00 0.00 45 1014.6
20260506183543 69 337 0.0 0.0 0.00 0.00 0.00 45 1014.6
20260506183024 69 288 0.0 0.0 0.00 0.00 0.00 45 1014.6
20260506182730 69 251 0.0 0.0 0.00 0.00 0.00 45 1014.6
20260506182527 69 249 0.0 0.0 0.00 0.00 0.00 46 1014.6
20260506182034 68 262 0.0 0.0 0.00 0.00 0.00 48 1014.6
20260506181757 68 263 0.0 0.0 0.00 0.00 0.00 48 1014.6
20260506181517 68 263 0.0 0.0 0.00 0.00 0.00 48 1014.6
20260506181022 68 254 0.0 0.0 0.00 0.00 0.00 48 1014.6
20260506180727 68 267 0.0 0.0 0.00 0.00 0.00 50 1014.6
20260506180528 68 248 0.0 0.0 0.00 0.00 0.00 50 1014.6
20260506180049 67 229 0.0 0.0 0.00 0.00 0.00 51 1014.6
20260506175730 67 229 0.0 0.0 0.00 0.00 0.00 51 1014.6
20260506175534 67 278 0.0 0.0 0.00 0.00 0.00 52 1014.6
20260506175036 67 288 0.0 0.0 0.00 0.00 0.00 52 1014.6
20260506174723 67 254 0.0 0.0 0.00 0.00 0.00 51 1014.6
20260506174525 67 254 0.0 0.0 0.00 0.00 0.00 53 1014.6
20260506174027 66 323 0.0 0.0 0.00 0.00 0.00 53 1014.7
20260506173732 66 323 0.0 0.0 0.00 0.00 0.00 52 1014.7
20260506173537 66 261 0.0 0.0 0.00 0.00 0.00 54 1014.7
20260506173019 66 271 0.0 0.0 0.00 0.00 0.00 55 1014.7
20260506172729 65 286 0.0 0.0 0.00 0.00 0.00 56 1014.7
20260506172549 65 313 0.0 0.0 0.00 0.00 0.00 56 1014.7
20260506172029 64 338 0.0 0.0 0.00 0.00 0.00 56 1014.7
20260506171722 64 338 0.0 0.0 0.00 0.00 0.00 57 1014.7
20260506171519 64 303 0.0 0.0 0.00 0.00 0.00 57 1014.7
20260506171022 64 244 0.0 0.0 0.00 0.00 0.00 58 1014.8
20260506170733 64 255 0.0 0.0 0.00 0.00 0.00 59 1014.8
20260506170533 64 265 0.0 0.0 0.00 0.00 0.00 59 1014.8
20260506170055 64 254 0.0 0.0 0.00 0.00 0.00 59 1014.8
20260506165722 64 240 0.0 0.0 0.00 0.00 0.00 59 1014.8
20260506165520 64 234 0.0 0.0 0.00 0.00 0.00 59 1014.8
20260506165020 63 213 0.0 0.0 0.00 0.00 0.00 61 1014.8
20260506164748 63 186 0.0 0.0 0.00 0.00 0.00 62 1014.8
20260506164525 63 183 0.0 0.0 0.00 0.00 0.00 63 1014.8
20260506164027 62 230 0.0 0.0 0.00 0.00 0.00 64 1014.9
20260506163734 62 230 0.0 0.0 0.00 0.00 0.00 65 1014.9
20260506163535 61 230 0.0 0.0 0.00 0.00 0.00 65 1014.9
20260506163057 61 230 0.0 0.0 0.00 0.00 0.00 65 1014.9
20260506162723 61 230 0.0 0.0 0.00 0.00 0.00 66 1015.0
20260506162540 61 229 0.0 0.0 0.00 0.00 0.00 67 1014.1
20260506162020 60 230 0.0 0.0 0.00 0.00 0.00 68 1014.1
20260506161730 60 230 0.0 0.0 0.00 0.00 0.00 68 1014.1
20260506161548 60 230 0.0 0.0 0.00 0.00 0.00 68 1014.1
20260506161028 59 227 0.0 0.0 0.00 0.00 0.00 70 1014.1
20260506160736 59 221 0.0 0.0 0.00 0.00 0.00 71 1014.1
20260506160532 59 221 0.0 0.0 0.00 0.00 0.00 71 1014.1
20260506160034 58 221 0.0 0.0 0.00 0.00 0.00 71 1014.1
20260506155740 58 178 0.0 0.0 0.00 0.00 0.00 71 1014.1
20260506155537 58 178 0.0 0.0 0.00 0.00 0.00 71 1014.1
20260506155039 58 173 0.0 0.0 0.00 0.00 0.00 71 1014.1
20260506154728 58 176 0.0 0.0 0.00 0.00 0.00 71 1014.1
20260506154529 57 176 0.0 0.0 0.00 0.00 0.00 71 1014.1
20260506154030 57 176 0.0 0.0 0.00 0.00 0.00 73 1014.1
20260506153738 57 175 0.0 0.0 0.00 0.00 0.00 74 1014.1
20260506153534 57 177 0.0 0.0 0.00 0.00 0.00 74 1014.1
20260506153038 57 180 0.0 0.0 0.00 0.00 0.00 74 1014.1
20260506152725 57 180 0.0 0.0 0.00 0.00 0.00 74 1014.0
20260506152543 57 180 0.0 0.0 0.00 0.00 0.00 74 1014.0
20260506152023 56 190 0.0 0.0 0.00 0.00 0.00 76 1014.0
20260506151731 56 150 0.0 0.0 0.00 0.00 0.00 76 1014.0
20260506151528 56 87 0.0 0.0 0.00 0.00 0.00 77 1014.0
20260506151029 56 67 0.0 0.0 0.00 0.00 0.00 78 1014.0
20260506150738 56 67 0.0 0.0 0.00 0.00 0.00 78 1014.0
20260506150538 55 61 0.0 0.0 0.00 0.00 0.00 78 1014.0
20260506150023 55 61 0.0 0.0 0.00 0.00 0.00 79 1014.0
20260506145725 55 61 0.0 0.0 0.00 0.00 0.00 79 1014.1
20260506145527 55 61 0.0 0.0 0.00 0.00 0.00 79 1014.1
20260506145048 55 61 0.0 0.0 0.00 0.00 0.00 80 1014.1
20260506144730 54 61 0.0 0.0 0.00 0.00 0.00 80 1014.1
20260506144528 54 61 0.0 0.0 0.00 0.00 0.00 80 1014.1
20260506144037 54 61 0.0 0.0 0.00 0.00 0.00 80 1014.1
20260506143721 54 61 0.0 0.0 0.00 0.00 0.00 80 1014.1
20260506143525 53 61 0.0 0.0 0.00 0.00 0.00 80 1014.1
20260506143027 53 61 0.0 0.0 0.00 0.00 0.00 80 1014.1
20260506142730 53 60 0.0 0.0 0.00 0.00 0.00 80 1014.1
20260506142534 52 61 0.0 0.0 0.00 0.00 0.00 79 1014.1
20260506142054 52 61 0.0 0.0 0.00 0.00 0.00 79 1014.1
20260506141739 52 60 0.0 0.0 0.00 0.00 0.00 79 1014.1
20260506141520 52 61 0.0 0.0 0.00 0.00 0.00 79 1014.1
20260506141021 51 60 0.0 0.0 0.00 0.00 0.00 79 1014.1
20260506140728 51 63 0.0 0.0 0.00 0.00 0.00 79 1014.1
20260506140530 51 61 0.0 0.0 0.00 0.00 0.00 79 1014.1
20260506140032 51 60 0.0 0.0 0.00 0.00 0.00 79 1014.1
20260506135734 51 60 0.0 0.0 0.00 0.00 0.00 79 1014.1
20260506135534 51 60 0.0 0.0 0.00 0.00 0.00 79 1014.0
20260506135036 51 60 0.0 0.0 0.00 0.00 0.00 79 1014.0
20260506134725 50 60 0.0 0.0 0.00 0.00 0.00 79 1014.0
20260506134525 50 60 0.0 0.0 0.00 0.00 0.00 79 1014.0
20260506134029 50 60 0.0 0.0 0.00 0.00 0.00 79 1013.6
20260506133737 50 60 0.0 0.0 0.00 0.00 0.00 79 1013.6
20260506133554 50 60 0.0 0.0 0.00 0.00 0.00 79 1013.6
20260506133037 50 60 0.0 0.0 0.00 0.00 0.00 79 1013.6
20260506132724 50 69 0.0 0.0 0.00 0.00 0.00 79 1013.5
20260506132544 50 69 0.0 0.0 0.00 0.00 0.00 79 1013.5
20260506132026 50 69 0.0 0.0 0.00 0.00 0.00 79 1013.5
20260506131734 50 69 0.0 0.0 0.00 0.00 0.00 79 1013.5
20260506131535 50 69 0.0 0.0 0.00 0.00 0.00 79 1013.5
20260506131039 50 69 0.0 0.0 0.00 0.00 0.00 79 1013.5
20260506130728 50 69 0.0 0.0 0.00 0.00 0.00 79 1013.5
20260506130525 50 69 0.0 0.0 0.00 0.00 0.00 79 1013.5
20260506130027 50 69 0.0 0.0 0.00 0.00 0.00 79 1013.5
20260506125733 50 69 0.0 0.0 0.00 0.00 0.00 79 1013.5
20260506125530 50 69 0.0 0.0 0.00 0.00 0.00 79 1013.3
20260506125031 50 69 0.0 0.0 0.00 0.00 0.00 80 1013.3
20260506124739 50 69 0.0 0.0 0.00 0.00 0.00 80 1013.3
20260506124536 50 69 0.0 0.0 0.00 0.00 0.00 80 1013.3
20260506124037 50 69 0.0 0.0 0.00 0.00 0.00 80 1013.0
20260506123724 51 69 0.0 0.0 0.00 0.00 0.00 80 1013.0
20260506123520 51 69 0.0 0.0 0.00 0.00 0.00 80 1013.0
20260506123021 51 69 0.0 0.0 0.00 0.00 0.00 80 1013.0
20260506122747 51 69 0.0 0.0 0.00 0.00 0.00 80 1012.9
20260506122524 51 69 0.0 0.0 0.00 0.00 0.00 79 1012.9
20260506122046 51 69 0.0 0.0 0.00 0.00 0.00 79 1012.9
20260506121734 51 69 0.0 0.0 0.00 0.00 0.00 79 1012.9
20260506121532 51 69 0.0 0.0 0.00 0.00 0.00 79 1012.9
20260506121034 51 69 0.0 0.0 0.00 0.00 0.00 79 1012.9
20260506120722 51 69 0.0 0.0 0.00 0.00 0.00 79 1012.9
20260506120538 51 69 0.0 0.0 0.00 0.00 0.00 79 1012.9
20260506120040 51 69 0.0 0.0 0.00 0.00 0.00 78 1012.9
20260506115746 50 69 0.0 0.0 0.00 0.00 0.00 78 1012.9
20260506115542 50 69 0.0 0.0 0.00 0.00 0.00 78 1012.9
20260506115026 50 69 0.0 0.0 0.00 0.00 0.00 77 1012.9
20260506114733 50 69 0.0 0.0 0.00 0.00 0.00 77 1012.9
20260506114531 50 69 0.0 0.0 0.00 0.00 0.00 77 1012.9
20260506114033 50 69 0.0 0.0 0.00 0.01 0.00 77 1012.9
20260506113740 50 69 0.0 0.0 0.00 0.01 0.00 76 1012.9
20260506113517 50 69 0.0 0.0 0.00 0.01 0.00 76 1012.9
20260506113041 50 69 0.0 0.0 0.00 0.01 0.00 76 1012.9
20260506112728 50 69 0.0 0.0 0.00 0.01 0.00 76 1012.8
20260506112524 50 69 0.0 0.0 0.00 0.01 0.00 76 1012.8
20260506112026 50 69 0.0 0.0 0.00 0.01 0.00 75 1012.8
20260506111735 50 69 0.0 0.0 0.00 0.01 0.00 75 1012.8
20260506111536 50 69 0.0 0.0 0.00 0.01 0.00 75 1012.8
20260506111021 50 69 0.0 0.0 0.00 0.01 0.00 74 1012.9
20260506110727 50 69 0.0 0.0 0.00 0.01 0.00 74 1012.9
20260506110528 50 69 0.0 0.0 0.00 0.01 0.00 74 1012.9
20260506110030 50 69 0.0 0.0 0.00 0.01 0.00 74 1012.9
20260506105733 50 69 0.0 0.0 0.00 0.01 0.00 75 1012.9
20260506105534 50 69 0.0 0.0 0.00 0.01 0.00 75 1012.9
20260506105039 50 69 0.0 0.0 0.00 0.01 0.00 75 1012.9
20260506104721 50 69 0.0 0.0 0.00 0.01 0.00 75 1012.9
20260506104523 50 69 0.0 0.0 0.00 0.01 0.00 75 1012.9
20260506104024 50 69 0.0 0.0 0.00 0.01 0.00 75 1013.8
20260506103729 50 69 0.0 0.0 0.00 0.01 0.00 75 1013.8
20260506103531 50 69 0.0 0.0 0.00 0.01 0.00 75 1013.8
20260506103032 50 69 0.0 0.0 0.00 0.01 0.00 75 1013.8
20260506102736 51 69 0.0 0.0 0.00 0.01 0.00 76 1013.8
20260506102537 51 69 0.0 0.0 0.00 0.01 0.00 76 1013.7
20260506102038 51 69 0.0 0.0 0.00 0.01 0.00 76 1013.7
20260506101727 51 69 0.0 0.0 0.00 0.01 0.00 76 1013.7
20260506101525 51 69 0.0 0.0 0.00 0.01 0.00 76 1013.7
20260506101049 51 69 0.0 0.0 0.00 0.01 0.00 76 1012.8
20260506100737 51 69 0.0 0.0 0.00 0.01 0.00 76 1012.8
20260506100559 51 69 0.0 0.0 0.00 0.01 0.00 76 1012.8
20260506100020 51 69 0.0 0.0 0.00 0.01 0.00 76 1012.8
20260506095748 51 69 0.0 0.0 0.00 0.01 0.00 76 1012.9
20260506095525 51 69 0.0 0.0 0.00 0.01 0.00 76 1012.9
20260506095027 51 69 0.0 0.0 0.00 0.01 0.00 76 1012.9
20260506094736 51 69 0.0 0.0 0.00 0.01 0.00 76 1012.9
20260506094534 51 69 0.0 0.0 0.00 0.01 0.00 76 1012.9
20260506094038 51 69 0.0 0.0 0.00 0.02 0.00 77 1013.0
20260506093727 51 69 0.0 0.0 0.00 0.02 0.00 77 1013.0
20260506093527 51 69 0.0 0.0 0.00 0.02 0.00 77 1013.0
20260506093027 51 69 0.0 0.0 0.00 0.02 0.00 77 1013.0
20260506092737 51 69 0.0 0.0 0.00 0.02 0.00 77 1013.0
20260506092538 52 69 0.0 0.0 0.00 0.02 0.00 77 1013.0
20260506092039 52 69 0.0 0.0 0.00 0.02 0.00 77 1013.0
20260506091728 52 69 0.0 0.0 0.00 0.02 0.00 77 1013.0
20260506091526 52 69 0.0 0.0 0.00 0.02 0.00 77 1013.0
20260506091028 52 69 0.0 0.0 0.00 0.02 0.00 78 1014.0
20260506090756 52 69 0.0 0.0 0.00 0.02 0.00 78 1014.0
20260506090532 52 69 0.0 0.0 0.00 0.02 0.00 78 1014.0
20260506090033 52 69 0.0 0.0 0.00 0.02 0.00 78 1014.0
20260506085739 52 69 0.0 0.0 0.00 0.02 0.00 78 1014.0
20260506085558 52 69 0.0 0.0 0.00 0.02 0.00 78 1014.3
20260506085037 52 69 0.0 0.0 0.00 0.02 0.00 79 1014.3
20260506084728 52 69 0.0 0.0 0.00 0.02 0.00 79 1014.3
20260506084525 52 69 0.0 0.0 0.00 0.02 0.00 79 1014.3
20260506084027 52 69 0.0 0.0 0.00 0.02 0.00 79 1014.3
20260506083735 52 69 0.0 0.0 0.00 0.02 0.00 79 1014.3
20260506083532 52 69 0.0 0.0 0.00 0.02 0.00 79 1014.3
20260506083038 52 69 0.0 0.0 0.00 0.02 0.00 79 1014.3
20260506082721 52 69 0.0 0.0 0.00 0.02 0.00 78 1014.4
20260506082521 52 69 0.0 0.0 0.00 0.02 0.00 78 1014.4
20260506082023 52 69 0.0 0.0 0.00 0.02 0.00 78 1014.4
20260506081727 52 69 0.0 0.0 0.00 0.02 0.00 78 1014.4
20260506081529 52 69 0.0 0.0 0.00 0.02 0.00 78 1014.4
20260506081029 52 69 0.0 0.0 0.00 0.02 0.00 78 1014.3
20260506080733 52 69 0.0 0.0 0.00 0.02 0.00 78 1014.3
20260506080534 52 69 0.0 0.0 0.00 0.02 0.00 78 1014.3
20260506073520 53 68 0.0 0.0 0.00 0.03 0.00 77 1014.4
20260506073023 53 68 0.0 0.0 0.00 0.03 0.00 77 1014.4
20260506072746 53 68 0.0 0.0 0.00 0.03 0.00 77 1014.4
20260506072527 53 68 0.0 0.0 0.00 0.03 0.00 77 1014.4
20260506072049 53 68 0.0 0.0 0.00 0.03 0.00 77 1014.4
20260506071735 53 68 0.0 0.0 0.00 0.03 0.00 77 1014.4
20260506071556 53 68 0.0 0.0 0.00 0.03 0.00 76 1014.4
20260506071037 53 68 0.0 0.0 0.00 0.03 0.00 76 1013.5
20260506070726 53 69 0.0 0.0 0.00 0.03 0.00 76 1013.5
20260506070545 53 69 0.0 0.0 0.00 0.03 0.00 76 1013.5